Monterey, CA

9:44 PM PDT on April 23, 2017 (GMT -0700)
Monterey Peninsula

Weather History for KMRY - August, 2013

Change the Weather History Date:

Tuesday, August 6, 2013

  Actual Average Record
Temperature  
Mean Temperature 61 °F 61 °F  
Max Temperature 67 °F 68 °F 73 °F (2014)
Min Temperature 55 °F 54 °F 50 °F (2004)
Degree Days  
Heating Degree Days 4    
Month to date heating degree days 29  
Since 1 June heating degree days 270  
Since 1 July heating degree days 142  
Cooling Degree Days 0    
Month to date cooling degree days 0  
Year to date cooling degree days 21  
Since 1 June cooling degree days 14  
Growing Degree Days 10 (Base 50)    
Moisture  
Dew Point 53 °F    
Average Humidity 78    
Maximum Humidity 93    
Minimum Humidity 63    
Precipitation  
Precipitation 0.00 in - 0.04 in (2015)
Month to date precipitation 0.00  
Year to date precipitation 3.15  
Since 1 July precipitation 0.00  
Sea Level Pressure  
Sea Level Pressure 30.08 in    
Wind  
Wind Speed 6 mph (WSW)    
Max Wind Speed 14 mph    
Max Gust Speed 20 mph    
Visibility 10 miles    
Events      
T = Trace of Precipitation, MM = Missing Value Source: NWS Daily Summary

Daily Weather History Graph

Daily Weather History Graph

Search for Another Location

Airport or City:

Trip Planner

Search our weather history database for the weather conditions in past years. The results will help you decide how hot, cold, wet, or windy it might be!

Date:

Astronomy

Aug. 06, 2013 Rise Set
Actual Time 6:17 AM PDT 8:08 PM PDT
Civil Twilight 5:49 AM PDT 8:36 PM PDT
Nautical Twilight 5:15 AM PDT 9:10 PM PDT
Astronomical Twilight 4:39 AM PDT 9:46 PM PDT
Moon 6:12 AM PDT (8/6) 7:48 PM PDT (8/6)
Length of Visible Light 14h 46m
Length of Day
13h 50m
Waning Crescent, 0% of the Moon is Illuminated
Aug 6
Waning Crescent
Aug 6
New
Aug 14
First Quarter
Aug 20
Full
Aug 28
Last Quarter

Hourly Weather History & Observations

Time (PDT) Temp. Dew Point Humidity Pressure Visibility Wind Dir Wind Speed Gust Speed Precip Events Conditions
12:54 AM 55.9 °F 52.0 °F 87% 30.06 in 10.0 mi SW 5.8 mph - N/A   Overcast
1:54 AM 55.9 °F 52.0 °F 87% 30.05 in 10.0 mi WSW 4.6 mph - N/A   Overcast
2:54 AM 55.0 °F 53.1 °F 93% 30.04 in 10.0 mi SSW 4.6 mph - N/A   Overcast
3:54 AM 55.9 °F 53.1 °F 90% 30.04 in 10.0 mi Variable 4.6 mph - N/A   Overcast
4:54 AM 55.0 °F 53.1 °F 93% 30.05 in 10.0 mi WSW 5.8 mph - N/A   Overcast
5:54 AM 55.0 °F 53.1 °F 93% 30.05 in 10.0 mi WSW 5.8 mph - N/A   Overcast
6:54 AM 55.0 °F 53.1 °F 93% 30.06 in 9.0 mi West 4.6 mph - N/A   Overcast
7:45 AM 55.4 °F 51.8 °F 88% 30.04 in 10.0 mi WSW 4.6 mph - N/A   Overcast
7:54 AM 55.0 °F 52.0 °F 89% 30.08 in 10.0 mi WSW 8.1 mph - N/A   Overcast
8:54 AM 55.9 °F 53.1 °F 90% 30.10 in 10.0 mi WNW 3.5 mph - N/A   Overcast
9:54 AM 57.0 °F 53.1 °F 87% 30.11 in 10.0 mi WNW 3.5 mph - N/A   Overcast
10:39 AM 59.0 °F 51.8 °F 77% 30.07 in 10.0 mi WNW 6.9 mph - N/A   Overcast
10:54 AM 60.1 °F 52.0 °F 75% 30.11 in 10.0 mi WNW 5.8 mph - N/A   Overcast
11:52 AM 60.8 °F 51.8 °F 72% 30.07 in 10.0 mi NW 8.1 mph - N/A   Scattered Clouds
11:54 AM 61.0 °F 52.0 °F 72% 30.10 in 10.0 mi NW 6.9 mph - N/A   Partly Cloudy
12:54 PM 62.1 °F 52.0 °F 70% 30.10 in 10.0 mi NW 10.4 mph - N/A   Clear
1:54 PM 64.9 °F 52.0 °F 63% 30.10 in 10.0 mi WNW 12.7 mph - N/A   Partly Cloudy
2:54 PM 66.9 °F 53.1 °F 61% 30.09 in 10.0 mi SW 9.2 mph - N/A   Clear
3:54 PM 63.0 °F 53.1 °F 70% 30.10 in 10.0 mi SW 11.5 mph - N/A   Partly Cloudy
4:54 PM 63.0 °F 53.1 °F 70% 30.09 in 10.0 mi SW 9.2 mph - N/A   Clear
5:54 PM 61.0 °F 53.1 °F 75% 30.09 in 10.0 mi SSW 10.4 mph - N/A   Scattered Clouds
6:12 PM 60.8 °F 53.6 °F 77% 30.05 in 10.0 mi SSW 8.1 mph - N/A   Mostly Cloudy
6:54 PM 60.1 °F 53.1 °F 78% 30.09 in 10.0 mi WSW 5.8 mph - N/A   Overcast
7:40 PM 59.0 °F 53.6 °F 82% 30.06 in 10.0 mi WSW 8.1 mph - N/A   Overcast
7:54 PM 59.0 °F 54.0 °F 83% 30.10 in 10.0 mi SW 4.6 mph - N/A   Overcast
8:54 PM 57.9 °F 54.0 °F 87% 30.11 in 10.0 mi South 5.8 mph - N/A   Overcast
9:54 PM 57.9 °F 54.0 °F 87% 30.13 in 10.0 mi SSW 4.6 mph - N/A   Overcast
10:54 PM 57.9 °F 54.0 °F 87% 30.13 in 10.0 mi Calm Calm - N/A   Overcast
11:54 PM 57.9 °F 54.0 °F 87% 30.12 in 10.0 mi SSE 3.5 mph - N/A   Overcast